Location: Asheville, NC
(35.6000°N, 82.5500°W)
Time: 16:22:18

Vanguard 2 Rocket - Pass Details

Date: 11 December 2017
Orbit: 554 x 3327 km, 32.9° (Epoch: 20 March)

Event Time Altitude Azimuth Distance (km) Brightness Sun altitude
Rises 03:09:16 0° 285° (WNW) 7,273 - -52.1°
Reaches altitude 10° 03:14:42 10° 279° (W) 6,289 - -51.0°
Maximum altitude 03:31:52 38° 221° (SW) 3,942 - -47.5°
Exits shadow 03:37:50 30° 186° (S) 3,957 9.9 -46.3°
Drops below altitude 10° 03:44:54 10° 159° (SSE) 4,777 10.7 -44.8°
Sets 03:48:24 0° 151° (SSE) 5,426 11.1 -44.1°
